Location: Fours
(44.3167°N, 6.7000°E)
Time: 06:35:18
(UTC+00:00)

Envisat - Visible Passes

Search period start: 18 September 2021 00:00
Search period end: 28 September 2021 00:00
Orbit: 764 x 766 km, 98.2° (Epoch: 17 September)

Date Brightness Start Highest point End Pass type
(mag) Time Alt. Az. Time Alt. Az. Time Alt. Az.
18 Sep 6.0 03:22:29 10° ENE 03:24:48 13° E 03:27:06 10° ESE visible
19 Sep 4.1 04:22:36 10° NNE 04:27:32 48° E 04:32:25 10° S visible
20 Sep 5.5 03:46:28 10° NE 03:50:26 22° E 03:54:23 10° SE visible
21 Sep 3.2 04:47:48 10° NNE 04:52:55 82° ESE 04:58:00 10° SSW visible
22 Sep 4.6 04:11:14 10° NNE 04:15:58 38° E 04:20:40 10° SSE visible
23 Sep 5.8 03:35:23 10° NE 03:38:48 18° E 03:42:13 10° SE visible
24 Sep 3.5 04:36:19 10° NNE 04:41:24 65° ESE 04:46:26 10° S visible
25 Sep 5.0 03:59:55 10° NNE 04:04:23 30° E 04:08:49 10° SSE visible
26 Sep 6.0 03:24:31 10° ENE 03:27:10 14° E 03:29:48 10° ESE visible
27 Sep 4.0 04:24:53 10° NNE 04:29:51 52° E 04:34:48 10° S visible
